Corpus Christi, TX

8:10 PM CST on February 21, 2017 (GMT -0600)
Corpus Christi International

Weather History for KCRP - September, 2013

Change the Weather History Date:

Friday, September 20, 2013

  Actual Average Record
Temperature  
Mean Temperature 82 °F 80 °F  
Max Temperature 90 °F 89 °F 98 °F (1947)
Min Temperature 74 °F 71 °F 59 °F (1981)
Degree Days  
Heating Degree Days 0 0  
Month to date heating degree days 0 0  
Since 1 July heating degree days 0 0  
Cooling Degree Days 17 15  
Month to date cooling degree days 401 341  
Year to date cooling degree days 3414 2902  
Growing Degree Days 33 (Base 50)    
Moisture  
Dew Point 77 °F    
Average Humidity 81    
Maximum Humidity 91    
Minimum Humidity 70    
Precipitation  
Precipitation 0.85 in 0.16 in 3.48 in (1967)
Month to date precipitation 5.97 3.50  
Year to date precipitation 16.98 22.84  
Snow  
Snow 0.00 in - - ()
Month to date snowfall 0.0  
Since 1 July snowfall 0.0  
Since 1 September snowfall 0.0  
Snow Depth 0.00 in    
Sea Level Pressure  
Sea Level Pressure 29.77 in    
Wind  
Wind Speed 9 mph (SSE)    
Max Wind Speed 25 mph    
Max Gust Speed 32 mph    
Visibility 8 miles    
Events Rain , Thunderstorm    
T = Trace of Precipitation, MM = Missing Value Source: NWS Daily Summary

Daily Weather History Graph

Daily Weather History Graph

Search for Another Location

Airport or City:

Trip Planner

Search our weather history database for the weather conditions in past years. The results will help you decide how hot, cold, wet, or windy it might be!

Date:

Astronomy

Sep. 20, 2013 Rise Set
Actual Time 7:17 AM CDT 7:28 PM CDT
Civil Twilight 6:54 AM CDT 7:51 PM CDT
Nautical Twilight 6:27 AM CDT 8:19 PM CDT
Astronomical Twilight 5:59 AM CDT 8:46 PM CDT
Moon 8:15 PM CDT (9/20) 8:23 AM CDT (9/20)
Length of Visible Light 12h 57m
Length of Day
12h 10m
Full, 98% of the Moon is Illuminated
Sep 20
Full
Sep 26
Last Quarter
Oct 4
New
Oct 11
First Quarter
Oct 18
Full

Hourly Weather History & Observations

Time (CDT) Temp. Heat Index Dew Point Humidity Pressure Visibility Wind Dir Wind Speed Gust Speed Precip Events Conditions
12:51 AM 82.0 °F 90.2 °F 77.0 °F 85% 29.82 in 10.0 mi SE 8.1 mph - 0.01 in   Partly Cloudy
1:51 AM 81.0 °F 87.9 °F 77.0 °F 88% 29.81 in 10.0 mi SSE 4.6 mph - N/A   Partly Cloudy
2:51 AM 81.0 °F 87.3 °F 75.9 °F 85% 29.80 in 8.0 mi SE 17.3 mph 23.0 mph 0.00 in Rain Light Rain
3:51 AM 81.0 °F 87.9 °F 77.0 °F 88% 29.78 in 9.0 mi SE 3.5 mph - 0.00 in Rain Light Rain
4:51 AM 80.1 °F 85.4 °F 75.9 °F 87% 29.77 in 10.0 mi SE 8.1 mph - 0.00 in   Partly Cloudy
5:51 AM 80.1 °F 85.4 °F 75.9 °F 87% 29.77 in 10.0 mi SE 4.6 mph - N/A   Partly Cloudy
6:51 AM 80.1 °F 85.4 °F 75.9 °F 87% 29.77 in 10.0 mi SE 3.5 mph - N/A   Partly Cloudy
7:51 AM 80.1 °F 85.8 °F 77.0 °F 90% 29.78 in 9.0 mi SSE 4.6 mph - N/A   Partly Cloudy
8:51 AM 82.0 °F 91.0 °F 78.1 °F 88% 29.79 in 9.0 mi South 5.8 mph - 0.00 in   Scattered Clouds
9:51 AM 84.0 °F 94.8 °F 78.1 °F 82% 29.79 in 2.5 mi South 11.5 mph - 0.01 in Rain Heavy Rain
10:00 AM 82.4 °F 92.4 °F 78.8 °F 89% 29.79 in 8.0 mi South 9.2 mph - 0.03 in   Mostly Cloudy
10:19 AM 84.2 °F 96.1 °F 78.8 °F 84% 29.79 in 10.0 mi SSW 9.2 mph - 0.03 in   Mostly Cloudy
10:21 AM 84.2 °F 96.1 °F 78.8 °F 84% 29.80 in 10.0 mi SSW 8.1 mph - 0.03 in Thunderstorm Thunderstorm
10:25 AM 84.2 °F 96.1 °F 78.8 °F 84% 29.81 in 8.0 mi South 15.0 mph 21.9 mph 0.03 in Rain , Thunderstorm Light Thunderstorms and Rain
10:27 AM 84.2 °F 96.1 °F 78.8 °F 84% 29.81 in 1.2 mi South 15.0 mph 21.9 mph 0.03 in Rain , Thunderstorm Heavy Thunderstorms and Rain
10:29 AM 82.4 °F 92.4 °F 78.8 °F 89% 29.81 in 0.8 mi South 25.3 mph 32.2 mph 0.12 in Rain , Thunderstorm Heavy Thunderstorms and Rain
10:33 AM 80.6 °F 86.2 °F 75.2 °F 84% 29.81 in 0.2 mi South 18.4 mph 32.2 mph 0.30 in Rain , Thunderstorm Heavy Thunderstorms and Rain
10:36 AM 80.6 °F 87.1 °F 77.0 °F 89% 29.81 in 0.8 mi South 18.4 mph 32.2 mph 0.42 in Rain , Thunderstorm Heavy Thunderstorms and Rain
10:42 AM 80.6 °F 86.2 °F 75.2 °F 84% 29.81 in 1.5 mi South 13.8 mph 23.0 mph 0.52 in Rain , Thunderstorm Heavy Thunderstorms and Rain
10:51 AM 80.1 °F 85.4 °F 75.9 °F 87% 29.80 in 7.0 mi South 6.9 mph - 0.55 in Rain , Thunderstorm Light Thunderstorms and Rain
11:27 AM 82.4 °F 92.4 °F 78.8 °F 89% 29.80 in 10.0 mi South 9.2 mph - 0.00 in   Mostly Cloudy
11:51 AM 84.0 °F 96.0 °F 79.0 °F 85% 29.78 in 9.0 mi SSW 18.4 mph 21.9 mph 0.00 in   Mostly Cloudy
12:51 PM 87.1 °F 101.5 °F 79.0 °F 77% 29.77 in 10.0 mi South 17.3 mph - 0.03 in   Mostly Cloudy
1:51 PM 89.1 °F 103.2 °F 78.1 °F 70% 29.74 in 10.0 mi SSE 12.7 mph 19.6 mph N/A   Mostly Cloudy
2:34 PM 89.6 °F 104.7 °F 78.8 °F 70% 29.72 in 10.0 mi SSE 15.0 mph - N/A Thunderstorm Thunderstorm
2:51 PM 87.1 °F 98.8 °F 77.0 °F 72% 29.72 in 10.0 mi SSE 17.3 mph 23.0 mph N/A Thunderstorm Thunderstorm
3:15 PM 82.4 °F 92.4 °F 78.8 °F 89% 29.74 in 4.0 mi SSW 16.1 mph - 0.02 in Rain , Thunderstorm Heavy Thunderstorms and Rain
3:47 PM 82.4 °F 90.9 °F 77.0 °F 84% 29.72 in 10.0 mi South 10.4 mph - 0.04 in   Mostly Cloudy
3:51 PM 82.0 °F 90.2 °F 77.0 °F 85% 29.71 in 10.0 mi South 10.4 mph - 0.04 in   Mostly Cloudy
4:51 PM 84.0 °F 94.8 °F 78.1 °F 82% 29.71 in 10.0 mi SSE 10.4 mph - N/A   Scattered Clouds
5:51 PM 86.0 °F 99.3 °F 79.0 °F 79% 29.70 in 10.0 mi SSE 12.7 mph - N/A   Mostly Cloudy
6:51 PM 84.9 °F 96.6 °F 78.1 °F 80% 29.70 in 10.0 mi SSE 12.7 mph - N/A   Mostly Cloudy
7:51 PM 84.0 °F 94.8 °F 78.1 °F 82% 29.71 in 10.0 mi SSE 6.9 mph - N/A   Mostly Cloudy
8:51 PM 82.9 °F 92.8 °F 78.1 °F 85% 29.73 in 9.0 mi SE 4.6 mph - 0.01 in Rain Light Rain
9:27 PM 80.6 °F 86.2 °F 75.2 °F 84% 29.75 in 10.0 mi NNW 19.6 mph 25.3 mph 0.00 in   Overcast
9:40 PM 78.8 °F - 73.4 °F 83% 29.75 in 10.0 mi NNW 17.3 mph 24.2 mph 0.00 in Thunderstorm Thunderstorm
9:47 PM 77.0 °F - 73.4 °F 89% 29.75 in 10.0 mi NNW 10.4 mph 20.7 mph 0.00 in Rain , Thunderstorm Light Thunderstorms and Rain
9:51 PM 76.5 °F - 73.9 °F 92% 29.75 in 10.0 mi NNW 9.2 mph - 0.00 in Thunderstorm Thunderstorm
10:09 PM 78.8 °F - 75.2 °F 89% 29.75 in 10.0 mi North 6.9 mph - 0.00 in Rain Light Rain
10:39 PM 78.8 °F - 75.2 °F 89% 29.75 in 10.0 mi North 6.9 mph - 0.02 in Rain , Thunderstorm Light Thunderstorms and Rain
10:51 PM 79.0 °F - 75.0 °F 88% 29.75 in 10.0 mi NNE 5.8 mph - 0.02 in Thunderstorm Thunderstorm
11:51 PM 77.0 °F - 73.0 °F 88% 29.75 in 9.0 mi NW 13.8 mph - 0.04 in Rain , Thunderstorm Light Thunderstorms and Rain